Location: Unspecified
(0.0000°N, 0.0000°E)
Time: 18:22:41
(UTC+02:00)

NATO 3D Rocket - Visible Passes

Search period start: 23 September 2014 00:00
Search period end: 03 October 2014 00:00
Orbit: 670 x 2297 km, 21.5° (Epoch: 16 September)

Date Brightness Start Highest point End Pass type
(mag) Time Alt. Az. Time Alt. Az. Time Alt. Az.
23 Sep 5.8 05:41:08 25° S 05:41:08 25° S 05:48:09 10° SE visible
23 Sep 6.3 20:24:52 10° NNW 20:26:55 11° N 20:28:49 10° N visible
24 Sep 6.5 04:47:49 16° SE 04:47:49 16° SE 04:49:43 10° SE visible
24 Sep 6.2 06:43:22 10° SW 06:48:53 20° S 06:55:51 10° SE visible
24 Sep 6.0 21:33:15 10° NNW 21:34:44 11° N 21:35:42 10° N visible
25 Sep 6.0 05:50:02 18° SSW 05:50:54 19° S 05:56:39 10° SE visible
25 Sep 6.1 20:34:00 10° NNW 20:37:04 13° N 20:39:48 10° NNE visible
26 Sep 6.5 04:56:42 13° SSE 04:56:42 13° SSE 04:58:06 10° SSE visible
26 Sep 6.3 06:54:04 10° SSW 06:59:01 17° S 07:05:04 10° SE visible
26 Sep 5.8 21:40:59 10° NNW 21:44:43 15° N 21:44:43 15° N visible
27 Sep 6.2 05:58:55 13° SSW 06:01:02 15° S 06:05:20 10° SSE visible
27 Sep 5.9 20:42:35 10° NNW 20:47:13 16° N 20:51:06 10° NE visible
27 Sep 6.6 22:46:58 10° NW 22:47:01 10° NW 22:47:01 10° NW visible
28 Sep 6.5 05:05:34 11° SSE 05:05:34 11° SSE 05:06:19 10° SSE visible
28 Sep 6.4 07:04:20 10° SSW 07:09:07 17° SSE 07:14:54 10° SE visible
28 Sep 5.5 21:49:15 10° NW 21:53:47 22° N 21:53:47 22° N visible
29 Sep 6.3 06:08:14 10° SSW 06:11:12 13° S 06:14:32 10° SSE visible
29 Sep 5.6 20:51:00 10° NW 20:57:17 22° N 21:00:35 16° NE visible
29 Sep 6.6 22:55:38 10° NW 22:56:09 12° NW 22:56:09 12° NW visible
30 Sep 6.4 07:14:01 10° SSW 07:19:04 18° SSE 07:25:17 10° SE visible
30 Sep 5.2 21:57:44 10° NW 22:02:58 32° NNW 22:02:58 32° NNW visible
01 Oct 6.3 06:18:17 10° SSW 06:21:16 13° SSE 06:24:39 10° SE visible
01 Oct 5.1 20:59:27 10° NW 21:07:13 32° NNE 21:09:48 25° NE visible
01 Oct 6.6 23:04:35 10° WNW 23:05:23 13° WNW 23:05:23 13° WNW visible
02 Oct 6.3 07:23:16 10° SSW 07:28:48 22° SSE 07:35:52 10° ESE visible
02 Oct 5.8 20:00:44 10° NW 20:09:26 30° N 20:15:51 10° ENE visible
02 Oct 5.0 22:06:26 10° WNW 22:12:15 43° NW 22:12:15 43° NW visible
